sat.trackr.live / text

‹ back to catalog

STARLINK-31125

NORAD 58678 · 2023-211M

PAYLOAD ACTIVE UNKNOWN

§ Identity

Operator
Country
US
Launch date
2023-12-29
Launch site
AFETR
Launch vehicle
Mass (kg)
RCS (m²)

Purposes: comms

External: N2YO · Heavens-Above · Gunter

§ Orbital elements

Epoch: 2026-05-24T23:54:13.400352Z

Period
94.27 min
Inclination
43.0025°
Eccentricity
0.0000936
Mean motion
15.27572870 rev/d
Perigee alt
482.4 km
Apogee alt
483.7 km
Semi-major
6,861.2 km
B*
1.4043e-5
RAAN
14.4320°
Arg perigee
267.1620°
Mean anomaly
92.9125°
Rev number
13,530

§ Raw data

STARLINK-311251 58678U 23211M   26144.99598843  .00000124  00000+0  14043-4 0  99972 58678  43.0025  14.4320 0000936 267.1620  92.9125 15.27572870135300

JSON: /api/v1/satellites/58678 · /tle

For live sub-satellite position, see the globe view (requires WebGL).

§ Visibility from observer

Set your observer location to see the next 7 days of passes ≥ 10°. The values pass through the URL so the page stays shareable.

No JS? Fill the form by hand. The geolocation button needs JavaScript.